7 * 24
多渠道服务支持
STARLINK-36789(NORAD编号68118)是SpaceX星链(Starlink)星座中的一颗低轨互联网通信卫星,隶属于SpaceX规模庞大的星链卫星组网计划。 作为星链星座的组成部分,它运行在近地轨道,是SpaceX为实现全球高速卫星互联网覆盖部署的卫星之一,承担着为偏远地区、海洋、航空等场景提供宽带互联网接入服务的使命。 2026年SpaceX启动四千颗星链卫星降轨计划,将轨道高度从550公里降至480公里,这颗卫星也在此次调整范围内,降轨旨在降低碰撞风险,减少太空碎片隐患,提升太空运行安全性。
美国
(US)
| 数据来源 | 国际轨道数据 |
| 星历时间: | 2026-07-27T04:43:21+0800 1天前 查看轨道信息 |
| 半长轴: | 6843.634km |
| 偏心率: | 0.0002317 |
| 轨道倾角: | 97.282° |
| 近地点辐角 | 103.900° |
| 升交点赤经 | 167.633° |
| 平近点角 | 256.250° |
| 近地点: | 463.911km |
| 远地点: | 467.083km |
| 周期: | 93.905分钟 |
| 每日圈数: | 15.334608 |